Location: Shepherdstown, WV
(39.4326°N, 77.8042°W)
Time: 22:15:24
(UTC-04:00)

Vanguard 1 Rocket - Pass Details

Date: 10 August 2021
Orbit: 650 x 4226 km, 34.3° (Epoch: 16 September)

Event Time Altitude Azimuth Distance (km) Brightness Sun altitude
Rises 16:09:42 0° 280° (W) 6,154 12.2 45.2°
Reaches altitude 10° 16:16:53 10° 260° (W) 4,257 11.9 43.9°
Maximum altitude 16:21:34 14° 233° (SW) 3,357 11.4 43.1°
Drops below altitude 10° 16:25:16 10° 205° (SSW) 3,175 10.8 42.4°
Sets 16:29:10 0° 179° (S) 3,660 10.7 41.6°
